Location: Harbor View
(36.2448°N, 86.5797°W)
Time: 09:11:23
(UTC+00:00)

CZ-4B R/B - Pass Details

Date: 29 October 2020
Orbit: 808 x 882 km, 99.1° (Epoch: 04 December)

Event Time Altitude Azimuth Distance (km) Brightness Sun altitude
Rises 23:25:34 0° 172° (S) 3,455 6.4 -7.3°
Reaches altitude 10° 23:27:59 10° 175° (S) 2,515 5.8 -7.7°
Maximum altitude 23:33:32 66° 258° (WSW) 940 3.8 -8.8°
Drops below altitude 10° 23:39:02 10° 340° (NNW) 2,488 5.8 -9.9°
Sets 23:41:25 0° 344° (NNW) 3,416 6.5 -10.4°
